DEKCM EDDL-ZZZZ

Flight info

Callsign DEKCM
Flight time N/A
Altitude
Route
Aircraft DA40

Departure

Time 2026-05-05 19:51
Airport Düsseldorf Airport (EDDL)

Arrival

Time N/A
Airport ZZZZ
Time Latitude Longitude Altitude Speed Heading
2026-05-05 19:41 51.27403 6.75312 115 ft 0 kts 89°
2026-05-05 19:42 51.27403 6.75314 115 ft 0 kts 88°
2026-05-05 19:44 51.27403 6.75318 115 ft 1 kts 102°
2026-05-05 19:44 51.27458 6.75320 116 ft 12 kts 351°
2026-05-05 19:45 51.27516 6.75215 117 ft 20 kts 339°
2026-05-05 19:45 51.27619 6.75186 117 ft 15 kts 351°
2026-05-05 19:45 51.27718 6.75196 117 ft 10 kts
2026-05-05 19:45 51.27782 6.75291 116 ft 14 kts 53°
2026-05-05 19:46 51.27816 6.75352 116 ft 7 kts 26°
2026-05-05 19:46 51.27887 6.75314 114 ft 10 kts 333°
2026-05-05 19:46 51.27899 6.75304 114 ft 0 kts 334°
2026-05-05 19:49 51.27924 6.75284 113 ft 15 kts 333°
2026-05-05 19:49 51.28025 6.75342 111 ft 0 kts 53°
2026-05-05 19:50 51.28077 6.75450 114 ft 41 kts 52°
2026-05-05 19:51 51.28344 6.76009 233 ft 70 kts 52°
2026-05-05 19:51 51.28641 6.76633 465 ft 72 kts 53°
2026-05-05 19:51 51.28934 6.77304 696 ft 74 kts 51°
2026-05-05 19:51 51.29192 6.78002 968 ft 71 kts 93°
2026-05-05 19:52 51.28911 6.78676 1175 ft 78 kts 148°
2026-05-05 19:52 51.28449 6.79109 1418 ft 80 kts 150°
2026-05-05 19:52 51.27960 6.79527 1685 ft 78 kts 153°
2026-05-05 19:52 51.27501 6.79982 1947 ft 78 kts 144°
2026-05-05 19:53 51.27052 6.80583 2045 ft 100 kts 140°
2026-05-05 19:53 51.26443 6.81357 2044 ft 120 kts 142°
2026-05-05 19:53 51.25745 6.82193 2033 ft 131 kts 144°
2026-05-05 19:53 51.25010 6.83046 2119 ft 128 kts 143°
2026-05-05 19:54 51.24527 6.83647 2049 ft 137 kts 140°
2026-05-05 19:54 51.23860 6.84778 1985 ft 140 kts 130°
2026-05-05 19:54 51.23250 6.85938 1995 ft 138 kts 129°
2026-05-05 19:54 51.22655 6.87131 2017 ft 135 kts 128°
2026-05-05 19:55 51.22071 6.88296 2040 ft 136 kts 129°
2026-05-05 19:55 51.21456 6.89485 1974 ft 140 kts 130°
2026-05-05 19:55 51.20838 6.90680 1980 ft 138 kts 129°
2026-05-05 19:55 51.20234 6.91846 2020 ft 136 kts 130°
2026-05-05 19:56 51.19611 6.93002 1975 ft 139 kts 131°
2026-05-05 19:56 51.18968 6.94138 1998 ft 137 kts 133°
2026-05-05 19:56 51.18308 6.95219 2034 ft 135 kts 135°
2026-05-05 19:56 51.17630 6.96279 1995 ft 139 kts 136°
2026-05-05 19:57 51.16913 6.97341 1940 ft 140 kts 137°
2026-05-05 19:57 51.16425 6.98575 2008 ft 134 kts 100°
2026-05-05 19:57 51.16544 7.00014 2087 ft 131 kts 75°
2026-05-05 19:57 51.16772 7.01393 2206 ft 127 kts 75°
2026-05-05 19:58 51.17000 7.02778 2239 ft 130 kts 75°
2026-05-05 19:58 51.17265 7.04138 2424 ft 116 kts 68°
2026-05-05 19:58 51.17541 7.05129 2958 ft 86 kts 66°
2026-05-05 19:58 51.17621 7.05426 3006 ft 92 kts 67°
2026-05-05 20:00 51.17657 7.05562 3006 ft 97 kts 67°
2026-05-05 20:00 51.17710 7.05764 3008 ft 102 kts 67°
2026-05-05 20:01 51.17792 7.06073 2989 ft 109 kts 67°
2026-05-05 20:01 51.18110 7.07244 3023 ft 123 kts 66°
2026-05-05 20:01 51.18475 7.08534 3022 ft 131 kts 65°
2026-05-05 20:01 51.18837 7.09873 3089 ft 130 kts 65°
2026-05-05 20:02 51.19275 7.11034 3382 ft 112 kts 44°
2026-05-05 20:02 51.19872 7.11899 3454 ft 122 kts 43°
2026-05-05 20:02 51.20530 7.12891 3361 ft 137 kts 44°
2026-05-05 20:02 51.21234 7.13974 3294 ft 142 kts 44°
2026-05-05 20:03 51.21952 7.15090 3189 ft 147 kts 44°
2026-05-05 20:03 51.22673 7.16207 3210 ft 141 kts 43°
2026-05-05 20:03 51.23354 7.17226 3306 ft 135 kts 43°
2026-05-05 20:03 51.24053 7.18251 3325 ft 137 kts 41°
2026-05-05 20:04 51.24781 7.19240 3333 ft 138 kts 39°
2026-05-05 20:04 51.25519 7.20168 3376 ft 137 kts 40°
2026-05-05 20:04 51.26239 7.21162 3388 ft 137 kts 40°
2026-05-05 20:04 51.26959 7.22129 3447 ft 135 kts 40°
2026-05-05 20:05 51.27694 7.23090 3467 ft 136 kts 39°
2026-05-05 20:05 51.28441 7.24061 3447 ft 140 kts 39°
2026-05-05 20:05 51.29194 7.25034 3404 ft 139 kts 38°
2026-05-05 20:05 51.29940 7.25948 3003 ft 134 kts 37°
2026-05-05 20:06 51.30683 7.26850 2550 ft 135 kts 37°
2026-05-05 20:06 51.31422 7.27763 2106 ft 135 kts 38°
2026-05-05 20:06 51.32174 7.28726 1938 ft 138 kts 39°
2026-05-05 20:06 51.32911 7.29684 1836 ft 133 kts 39°
2026-05-05 20:07 51.33611 7.30600 1916 ft 128 kts 39°
2026-05-05 20:07 51.34290 7.31466 2024 ft 121 kts 38°
2026-05-05 20:07 51.34951 7.32298 2065 ft 121 kts 38°
2026-05-05 20:07 51.35630 7.33119 2054 ft 125 kts 36°
2026-05-05 20:08 51.36334 7.33935 2092 ft 123 kts 40°
2026-05-05 20:08 51.36841 7.34988 2185 ft 119 kts 58°
2026-05-05 20:08 51.37267 7.36116 2239 ft 120 kts 60°
2026-05-05 20:08 51.37686 7.37298 2262 ft 121 kts 61°
2026-05-05 20:09 51.38045 7.38529 2278 ft 123 kts 68°
2026-05-05 20:09 51.38375 7.39820 2227 ft 129 kts 67°
2026-05-05 20:09 51.38718 7.41154 2164 ft 132 kts 68°
2026-05-05 20:09 51.39056 7.42542 2077 ft 135 kts 69°
2026-05-05 20:10 51.39400 7.43927 2037 ft 133 kts 68°
2026-05-05 20:10 51.39740 7.45291 2015 ft 131 kts 68°
2026-05-05 20:10 51.40092 7.46632 1940 ft 134 kts 65°
2026-05-05 20:10 51.40482 7.47950 1996 ft 130 kts 65°
2026-05-05 20:11 51.40867 7.49260 2052 ft 131 kts 65°
2026-05-05 20:11 51.41246 7.50593 2087 ft 133 kts 65°
2026-05-05 20:11 51.41628 7.51960 2073 ft 137 kts 66°
2026-05-05 20:11 51.42018 7.53400 1987 ft 142 kts 66°
2026-05-05 20:12 51.42400 7.54827 2044 ft 136 kts 68°
2026-05-05 20:12 51.42752 7.56216 2112 ft 133 kts 68°
2026-05-05 20:12 51.43114 7.57578 2165 ft 132 kts 67°
2026-05-05 20:12 51.43473 7.58940 2203 ft 134 kts 68°
2026-05-05 20:13 51.43830 7.60319 2225 ft 134 kts 67°
2026-05-05 20:13 51.44240 7.61671 2265 ft 132 kts 59°
2026-05-05 20:13 51.44913 7.62250 2521 ft 117 kts 347°
2026-05-05 20:13 51.45769 7.61931 2388 ft 137 kts 346°
2026-05-05 20:14 51.46702 7.61546 2244 ft 131 kts 345°
2026-05-05 20:14 51.47535 7.61193 2065 ft 120 kts 345°
2026-05-05 20:14 51.48326 7.60841 1960 ft 114 kts 344°
2026-05-05 20:14 51.49058 7.60516 1904 ft 107 kts 345°
2026-05-05 20:15 51.49717 7.60388 2010 ft 87 kts 24°
2026-05-05 20:15 51.50100 7.61138 1946 ft 92 kts 61°
2026-05-05 20:15 51.50420 7.62051 1838 ft 93 kts 59°
2026-05-05 20:15 51.50763 7.62922 1731 ft 91 kts 57°
2026-05-05 20:16 51.51110 7.63745 1596 ft 86 kts 55°
2026-05-05 20:16 51.51514 7.64464 1431 ft 88 kts 15°
2026-05-05 20:16 51.52073 7.64225 1264 ft 84 kts 339°
2026-05-05 20:16 51.52572 7.63808 1036 ft 82 kts 295°
2026-05-05 20:17 51.52418 7.62908 661 ft 90 kts 257°
2026-05-05 20:17 51.52118 7.62038 413 ft 82 kts 239°
2026-05-05 20:17 51.51845 7.61287 438 ft 83 kts 238°
2026-05-05 20:17 51.51697 7.60506 747 ft 72 kts 290°
2026-05-05 20:18 51.52092 7.60354 940 ft 73 kts 45°
2026-05-05 20:18 51.52480 7.61025 1019 ft 84 kts 46°
2026-05-05 20:18 51.52860 7.60889 1092 ft 74 kts 262°
2026-05-05 20:18 51.52555 7.60995 1141 ft 81 kts 73°
2026-05-05 20:19 51.52889 7.60830 1031 ft 80 kts 250°
2026-05-05 20:19 51.52574 7.61010 1030 ft 82 kts 65°
2026-05-05 20:19 51.52805 7.60721 973 ft 82 kts 213°
2026-05-05 20:19 51.52685 7.61147 1101 ft 76 kts
2026-05-05 20:20 51.52631 7.60755 1247 ft 76 kts 140°
2026-05-05 20:20 51.52784 7.61531 1302 ft 82 kts 56°
2026-05-05 20:20 51.53067 7.62274 1175 ft 77 kts 59°
2026-05-05 20:20 51.53322 7.63022 1038 ft 74 kts 70°
2026-05-05 20:21 51.53097 7.63680 888 ft 78 kts 154°
2026-05-05 20:21 51.52609 7.63546 615 ft 79 kts 266°
2026-05-05 20:21 51.52375 7.62762 412 ft 74 kts 240°
2026-05-05 20:21 51.52162 7.62148 406 ft 49 kts 240°
2026-05-05 20:22 51.52027 7.61771 407 ft 33 kts 240°
2026-05-05 20:22 51.51888 7.61379 413 ft 36 kts 241°
2026-05-05 20:22 51.51779 7.61067 417 ft 31 kts 241°
2026-05-05 20:22 51.51664 7.60741 417 ft 34 kts 240°
2026-05-05 20:23 51.51554 7.60581 415 ft 12 kts 156°
2026-05-05 20:23 51.51543 7.60635 415 ft 12 kts 127°
2026-05-05 20:23 51.51531 7.60667 416 ft 0 kts 111°
2026-05-05 20:24 51.51534 7.60753 417 ft 15 kts 72°
2026-05-05 20:24 51.51565 7.60925 420 ft 17 kts 73°
2026-05-05 20:24 51.51570 7.61036 420 ft 8 kts 131°
2026-05-05 20:25 51.51505 7.61039 429 ft 12 kts 232°
2026-05-05 20:25 51.51460 7.60911 426 ft 14 kts 241°
2026-05-05 20:25 51.51404 7.60753 427 ft 20 kts 240°
2026-05-05 20:25 51.51347 7.60599 439 ft 13 kts 245°
2026-05-05 20:26 51.51284 7.60413 438 ft 22 kts 241°
2026-05-05 20:26 51.51215 7.60215 437 ft 11 kts 242°
2026-05-05 20:26 51.51170 7.60160 452 ft 6 kts 167°
2026-05-05 20:26 51.51167 7.60244 455 ft 12 kts 52°
2026-05-05 20:27 51.51198 7.60307 452 ft 0 kts 62°
2026-05-05 20:27 51.51181 7.60359 458 ft 4 kts 133°
2026-05-05 20:27 51.51180 7.60360 458 ft 0 kts 136°